Location: Newark
(45.8667°N, 9.7333°E)
Time: 04:18:56
(UTC+00:00)

Courier 1B - All Passes

Search period start: 19 January 2020 00:00
Search period end: 29 January 2020 00:00
Orbit: 962 x 1209 km, 28.3° (Epoch: 18 January)

Date Brightness Start Highest point End Pass type
(mag) Time Alt. Az. Time Alt. Az. Time Alt. Az.
19 Jan - 05:01:53 10° SSW 05:06:48 18° SSE 05:11:43 10° SE visible
19 Jan - 06:54:24 10° SW 06:59:51 21° S 07:05:15 10° SE daylight
19 Jan - 08:49:03 10° SW 08:52:49 14° SSW 08:56:32 10° S daylight
20 Jan - 04:08:55 10° SSW 04:13:12 16° SSE 04:17:32 10° SE visible
20 Jan - 06:00:44 10° SW 06:06:12 21° S 06:11:42 10° SE visible
20 Jan - 07:54:40 10° SW 07:59:14 17° SSW 08:03:47 10° SSE daylight
21 Jan - 03:16:20 10° S 03:19:38 13° SSE 03:22:59 10° SE visible
21 Jan - 05:07:14 10° SW 05:12:34 20° S 05:17:57 10° SE visible
21 Jan - 07:00:35 10° SW 07:05:38 19° S 07:10:40 10° SSE daylight
22 Jan - 02:25:02 10° SSE 02:26:07 10° SSE 02:27:13 10° SSE visible
22 Jan - 04:13:56 10° SSW 04:18:57 19° S 04:24:03 10° SE visible
22 Jan - 06:06:44 10° SW 06:12:00 20° S 06:17:20 10° SE visible
22 Jan - 08:02:00 10° SW 08:04:57 12° SSW 08:07:54 10° S daylight
23 Jan - 03:20:50 10° SSW 03:25:22 17° SSE 03:29:59 10° SE visible
23 Jan - 05:13:02 10° SW 05:18:22 20° S 05:23:47 10° SE visible
23 Jan - 07:07:20 10° SW 07:11:23 15° SSW 07:15:26 10° SSE daylight
24 Jan - 02:28:05 10° SSW 02:31:48 15° SSE 02:35:38 10° SE visible
24 Jan - 04:19:31 10° SW 04:24:45 20° S 04:30:06 10° SE visible
24 Jan - 06:13:09 10° SW 06:17:47 17° SSW 06:22:27 10° SSE visible
25 Jan - 01:35:55 10° S 01:38:19 12° SSE 01:40:45 10° SE visible
25 Jan - 03:26:11 10° SW 03:31:09 19° S 03:36:16 10° SE visible
25 Jan - 05:19:14 10° SW 05:24:10 19° S 05:29:12 10° SSE visible
25 Jan - 07:16:05 10° SSW 07:17:04 10° SSW 07:18:05 10° SSW daylight
26 Jan - 02:33:01 10° SSW 02:37:35 18° S 02:42:17 10° SE visible
26 Jan - 04:25:32 10° SW 04:30:34 19° S 04:35:44 10° SE visible
26 Jan - 06:20:25 10° SW 06:23:32 13° SSW 06:26:40 10° S visible
27 Jan - 01:40:07 10° SSW 01:44:03 15° SSE 01:48:05 10° SE visible
27 Jan - 03:31:59 10° SW 03:36:59 20° S 03:42:07 10° SE visible
27 Jan - 05:26:00 10° SW 05:29:57 15° SSW 05:33:59 10° SSE visible
28 Jan - 00:47:37 10° S 00:50:34 13° SSE 00:53:34 10° SE night (unlit)
28 Jan - 02:38:36 10° SW 02:43:24 19° S 02:48:21 10° SE visible
28 Jan - 04:31:59 10° SW 04:36:23 17° SSW 04:40:53 10° SSE visible
28 Jan - 23:56:41 10° SSE 23:57:08 10° SSE 23:57:34 10° SSE night (unlit)
